DLH122 EDDC-EDHI

Flight info

Callsign DLH122
Flight time 0h 43m
Altitude 28000
Route BEBEX7W BEBEX Q230 TADUV T804 MAG M736 SOGMA M748 RARUP DCT TAMAB
Aircraft A359/H-SDE2E3GHIJ3J4J5LM1ORWXY/LB1D1

Departure

Time 2026-04-22 14:53
Airport Dresden Airport (EDDC)

Arrival

Time 2026-04-22 15:36
Airport Hamburg-Finkenwerder Airport (EDHI)
Time Latitude Longitude Altitude Speed Heading
2026-04-22 14:31 51.12605 13.76335 756 ft 0 kts 131°
2026-04-22 14:37 51.12619 13.76310 755 ft 4 kts 131°
2026-04-22 14:37 51.12636 13.76280 758 ft 4 kts 131°
2026-04-22 14:38 51.12649 13.76256 763 ft 4 kts 128°
2026-04-22 14:38 51.12660 13.76225 761 ft 4 kts 89°
2026-04-22 14:38 51.12652 13.76201 764 ft 4 kts 41°
2026-04-22 14:38 51.12633 13.76175 765 ft 3 kts 41°
2026-04-22 14:39 51.12634 13.76176 765 ft 3 kts 41°
2026-04-22 14:39 51.12642 13.76186 765 ft 0 kts 41°
2026-04-22 14:42 51.12642 13.76187 765 ft 1 kts 41°
2026-04-22 14:43 51.12672 13.76228 758 ft 12 kts 41°
2026-04-22 14:43 51.12754 13.76341 755 ft 19 kts 41°
2026-04-22 14:43 51.12865 13.76494 756 ft 24 kts 40°
2026-04-22 14:43 51.12997 13.76675 754 ft 27 kts 41°
2026-04-22 14:44 51.13142 13.76874 752 ft 28 kts 40°
2026-04-22 14:44 51.13193 13.76944 747 ft 7 kts 40°
2026-04-22 14:44 51.13250 13.76952 748 ft 10 kts 334°
2026-04-22 14:44 51.13306 13.76854 746 ft 14 kts 309°
2026-04-22 14:45 51.13389 13.76756 746 ft 15 kts
2026-04-22 14:45 51.13499 13.76887 742 ft 28 kts 40°
2026-04-22 14:45 51.13658 13.77105 736 ft 29 kts 41°
2026-04-22 14:45 51.13823 13.77333 734 ft 31 kts 41°
2026-04-22 14:46 51.13895 13.77509 730 ft 15 kts 114°
2026-04-22 14:46 51.13814 13.77670 725 ft 23 kts 131°
2026-04-22 14:46 51.13787 13.77739 723 ft 1 kts 99°
2026-04-22 14:46 51.13804 13.77786 722 ft 10 kts 44°
2026-04-22 14:47 51.13882 13.77894 724 ft 18 kts 41°
2026-04-22 14:47 51.13985 13.78037 724 ft 21 kts 41°
2026-04-22 14:47 51.14109 13.78205 722 ft 24 kts 40°
2026-04-22 14:47 51.14219 13.78353 719 ft 17 kts 27°
2026-04-22 14:48 51.14260 13.78356 718 ft 2 kts 341°
2026-04-22 14:48 51.14266 13.78348 719 ft 0 kts 321°
2026-04-22 14:51 51.14267 13.78346 718 ft 1 kts 321°
2026-04-22 14:51 51.14282 13.78323 719 ft 5 kts 314°
2026-04-22 14:51 51.14319 13.78259 718 ft 10 kts 311°
2026-04-22 14:51 51.14375 13.78150 717 ft 14 kts 298°
2026-04-22 14:52 51.14363 13.78073 718 ft 8 kts 241°
2026-04-22 14:52 51.14314 13.77998 720 ft 28 kts 221°
2026-04-22 14:52 51.13904 13.77428 732 ft 125 kts 220°
2026-04-22 14:52 51.13061 13.76259 1017 ft 183 kts 225°
2026-04-22 14:53 51.12072 13.74873 1854 ft 195 kts 225°
2026-04-22 14:53 51.11055 13.73397 2469 ft 205 kts 226°
2026-04-22 14:53 51.09949 13.71779 2706 ft 227 kts 226°
2026-04-22 14:53 51.08723 13.70020 2961 ft 246 kts 226°
2026-04-22 14:54 51.07411 13.68163 3474 ft 260 kts 225°
2026-04-22 14:54 51.06051 13.66229 4423 ft 264 kts 226°
2026-04-22 14:54 51.05008 13.63848 5293 ft 265 kts 254°
2026-04-22 14:54 51.04793 13.60951 6154 ft 267 kts 275°
2026-04-22 14:55 51.04987 13.57980 6916 ft 274 kts 287°
2026-04-22 14:55 51.05773 13.55263 7789 ft 270 kts 310°
2026-04-22 14:55 51.07104 13.53204 8755 ft 267 kts 326°
2026-04-22 14:55 51.08594 13.51436 9713 ft 269 kts 327°
2026-04-22 14:56 51.10124 13.49663 10483 ft 279 kts 327°
2026-04-22 14:56 51.11752 13.47766 10839 ft 301 kts 327°
2026-04-22 14:56 51.13487 13.45720 11309 ft 316 kts 326°
2026-04-22 14:56 51.15246 13.43627 11997 ft 322 kts 326°
2026-04-22 14:57 51.17053 13.41470 12800 ft 327 kts 327°
2026-04-22 14:57 51.18885 13.39278 13558 ft 332 kts 327°
2026-04-22 14:57 51.20748 13.37048 14293 ft 336 kts 327°
2026-04-22 14:57 51.22627 13.34795 14979 ft 341 kts 327°
2026-04-22 14:58 51.24533 13.32506 15665 ft 345 kts 327°
2026-04-22 14:58 51.26462 13.30187 16356 ft 349 kts 327°
2026-04-22 14:58 51.28421 13.27831 17047 ft 354 kts 327°
2026-04-22 14:58 51.30402 13.25445 17695 ft 358 kts 327°
2026-04-22 14:59 51.32371 13.23025 18344 ft 364 kts 324°
2026-04-22 14:59 51.34172 13.20115 18940 ft 374 kts 312°
2026-04-22 14:59 51.35514 13.16489 19513 ft 385 kts 296°
2026-04-22 14:59 51.36344 13.12384 20083 ft 392 kts 288°
2026-04-22 15:00 51.36955 13.08095 20632 ft 398 kts 284°
2026-04-22 15:00 51.37460 13.03727 21199 ft 402 kts 283°
2026-04-22 15:00 51.37931 12.99270 21753 ft 406 kts 282°
2026-04-22 15:00 51.38403 12.94792 22311 ft 410 kts 283°
2026-04-22 15:01 51.38895 12.90272 22856 ft 414 kts 283°
2026-04-22 15:01 51.39605 12.85796 23402 ft 414 kts 293°
2026-04-22 15:01 51.40891 12.81691 23938 ft 411 kts 308°
2026-04-22 15:01 51.42797 12.78350 24392 ft 405 kts 326°
2026-04-22 15:02 51.45144 12.75868 24874 ft 404 kts 335°
2026-04-22 15:02 51.47625 12.73860 25351 ft 405 kts 340°
2026-04-22 15:02 51.50218 12.72057 25862 ft 407 kts 342°
2026-04-22 15:02 51.52743 12.70403 26373 ft 410 kts 343°
2026-04-22 15:03 51.55405 12.68666 26928 ft 415 kts 342°
2026-04-22 15:03 51.58080 12.66883 27493 ft 419 kts 342°
2026-04-22 15:03 51.60791 12.65032 28031 ft 424 kts 342°
2026-04-22 15:03 51.63497 12.63148 28290 ft 425 kts 341°
2026-04-22 15:04 51.66170 12.61255 28326 ft 412 kts 341°
2026-04-22 15:04 51.68768 12.59396 28325 ft 406 kts 341°
2026-04-22 15:04 51.73923 12.55716 28314 ft 405 kts 341°
2026-04-22 15:05 51.79052 12.52064 28322 ft 405 kts 341°
2026-04-22 15:05 51.84221 12.48376 28319 ft 405 kts 341°
2026-04-22 15:06 51.89382 12.44684 28319 ft 406 kts 341°
2026-04-22 15:06 51.94558 12.40969 28317 ft 407 kts 341°
2026-04-22 15:07 51.99733 12.37245 28327 ft 407 kts 341°
2026-04-22 15:07 52.04916 12.33507 28305 ft 407 kts 340°
2026-04-22 15:08 52.10083 12.29770 28323 ft 406 kts 340°
2026-04-22 15:08 52.15244 12.26028 28323 ft 406 kts 340°
2026-04-22 15:09 52.20415 12.22269 28327 ft 407 kts 340°
2026-04-22 15:09 52.25560 12.18520 28325 ft 407 kts 340°
2026-04-22 15:10 52.30738 12.14737 28320 ft 407 kts 340°
2026-04-22 15:10 52.35907 12.10951 28329 ft 407 kts 340°
2026-04-22 15:11 52.41080 12.07153 28321 ft 408 kts 340°
2026-04-22 15:11 52.46270 12.03332 28322 ft 409 kts 340°
2026-04-22 15:12 52.51459 11.99502 28325 ft 409 kts 340°
2026-04-22 15:12 52.56612 11.95687 28321 ft 408 kts 340°
2026-04-22 15:13 52.61787 11.91826 28318 ft 409 kts 338°
2026-04-22 15:13 52.66610 11.86687 28316 ft 414 kts 327°
2026-04-22 15:14 52.71227 11.80936 28321 ft 416 kts 326°
2026-04-22 15:14 52.75772 11.75114 28322 ft 416 kts 326°
2026-04-22 15:15 52.80346 11.69256 28319 ft 416 kts 326°
2026-04-22 15:15 52.84926 11.63406 28315 ft 416 kts 326°
2026-04-22 15:16 52.89522 11.57531 28319 ft 417 kts 325°
2026-04-22 15:16 52.94108 11.51655 28318 ft 417 kts 326°
2026-04-22 15:17 52.98705 11.45756 28221 ft 427 kts 325°
2026-04-22 15:17 53.01117 11.42661 28115 ft 444 kts 325°
2026-04-22 15:17 53.03519 11.39563 27985 ft 429 kts 325°
2026-04-22 15:18 53.05839 11.36556 27764 ft 416 kts 325°
2026-04-22 15:18 53.08086 11.33655 27490 ft 400 kts 325°
2026-04-22 15:18 53.10239 11.30873 26727 ft 387 kts 325°
2026-04-22 15:18 53.12348 11.28155 25821 ft 380 kts 325°
2026-04-22 15:19 53.14450 11.25567 24984 ft 372 kts 327°
2026-04-22 15:19 53.16562 11.23129 24143 ft 365 kts 328°
2026-04-22 15:19 53.18626 11.20809 23264 ft 360 kts 328°
2026-04-22 15:19 53.20762 11.18422 22810 ft 380 kts 328°
2026-04-22 15:20 53.22259 11.16741 22701 ft 383 kts 328°
2026-04-22 15:20 53.25075 11.13529 21747 ft 362 kts 328°
2026-04-22 15:20 53.27155 11.11130 20715 ft 371 kts 327°
2026-04-22 15:20 53.29350 11.08594 20479 ft 391 kts 327°
2026-04-22 15:21 53.31603 11.05979 20023 ft 387 kts 327°
2026-04-22 15:21 53.33792 11.03428 19034 ft 393 kts 327°
2026-04-22 15:21 53.36044 11.00800 18135 ft 394 kts 327°
2026-04-22 15:21 53.38279 10.98187 17408 ft 389 kts 327°
2026-04-22 15:22 53.40478 10.95611 16744 ft 382 kts 327°
2026-04-22 15:22 53.42567 10.92867 16100 ft 383 kts 317°
2026-04-22 15:22 53.44184 10.89277 15468 ft 388 kts 302°
2026-04-22 15:22 53.45451 10.85299 14843 ft 386 kts 299°
2026-04-22 15:23 53.46663 10.81309 14239 ft 380 kts 299°
2026-04-22 15:23 53.47808 10.77506 13601 ft 352 kts 299°
2026-04-22 15:23 53.48872 10.73948 12962 ft 329 kts 299°
2026-04-22 15:23 53.49864 10.70611 12338 ft 310 kts 299°
2026-04-22 15:24 53.50800 10.67445 11722 ft 295 kts 299°
2026-04-22 15:24 53.51696 10.64405 11101 ft 288 kts 299°
2026-04-22 15:24 53.52578 10.61404 10497 ft 281 kts 299°
2026-04-22 15:24 53.53425 10.58513 9877 ft 271 kts 299°
2026-04-22 15:25 53.54243 10.55727 9228 ft 262 kts 299°
2026-04-22 15:25 53.55034 10.53041 8591 ft 255 kts 299°
2026-04-22 15:25 53.55814 10.50400 7960 ft 249 kts 299°
2026-04-22 15:25 53.56750 10.48017 7405 ft 240 kts 312°
2026-04-22 15:26 53.57825 10.45916 6922 ft 238 kts 314°
2026-04-22 15:26 53.58922 10.43852 6411 ft 233 kts 314°
2026-04-22 15:26 53.59995 10.41836 5901 ft 228 kts 314°
2026-04-22 15:26 53.61044 10.39852 5386 ft 226 kts 314°
2026-04-22 15:27 53.62085 10.37894 4883 ft 224 kts 314°
2026-04-22 15:27 53.63125 10.35960 4351 ft 221 kts 314°
2026-04-22 15:27 53.64152 10.34066 4044 ft 217 kts 314°
2026-04-22 15:27 53.65182 10.32191 3982 ft 220 kts 314°
2026-04-22 15:28 53.66229 10.30308 3992 ft 220 kts 314°
2026-04-22 15:28 53.67265 10.28431 3995 ft 217 kts 314°
2026-04-22 15:28 53.68261 10.26523 3985 ft 218 kts 307°
2026-04-22 15:28 53.68764 10.24106 3996 ft 223 kts 276°
2026-04-22 15:29 53.68673 10.21528 3864 ft 222 kts 265°
2026-04-22 15:29 53.68449 10.19029 3603 ft 207 kts 265°
2026-04-22 15:29 53.68227 10.16707 3353 ft 194 kts 265°
2026-04-22 15:30 53.67397 10.13339 3000 ft 179 kts 240°
2026-04-22 15:30 53.66440 10.11131 2997 ft 177 kts 238°
2026-04-22 15:30 53.65703 10.09525 2982 ft 161 kts 236°
2026-04-22 15:30 53.65026 10.08096 3017 ft 153 kts 238°
2026-04-22 15:31 53.64370 10.06696 3007 ft 153 kts 239°
2026-04-22 15:31 53.63712 10.05267 3007 ft 154 kts 237°
2026-04-22 15:31 53.63059 10.03849 2992 ft 155 kts 237°
2026-04-22 15:31 53.62399 10.02412 2794 ft 156 kts 236°
2026-04-22 15:32 53.61729 10.00981 2548 ft 151 kts 237°
2026-04-22 15:32 53.61108 9.99667 2357 ft 140 kts 237°
2026-04-22 15:32 53.60501 9.98398 2134 ft 138 kts 238°
2026-04-22 15:32 53.59897 9.97144 1908 ft 138 kts 238°
2026-04-22 15:33 53.59295 9.95939 1712 ft 129 kts 236°
2026-04-22 15:33 53.58726 9.94831 1599 ft 122 kts 237°
2026-04-22 15:33 53.58192 9.93731 1464 ft 121 kts 239°
2026-04-22 15:33 53.57696 9.92592 1262 ft 120 kts 240°
2026-04-22 15:34 53.57211 9.91430 1176 ft 125 kts 240°
2026-04-22 15:34 53.56710 9.90261 918 ft 119 kts 239°
2026-04-22 15:34 53.56197 9.89245 763 ft 110 kts 235°
2026-04-22 15:34 53.55689 9.88210 602 ft 116 kts 238°
2026-04-22 15:35 53.55361 9.87487 476 ft 121 kts 237°
2026-04-22 15:35 53.54664 9.85993 285 ft 122 kts 237°
2026-04-22 15:35 53.54159 9.84903 133 ft 113 kts 235°
2026-04-22 15:35 53.53686 9.83907 35 ft 104 kts 237°
2026-04-22 15:36 53.53410 9.83303 28 ft 89 kts 232°
2026-04-22 15:36 53.53033 9.82498 27 ft 48 kts 231°
2026-04-22 15:36 53.52930 9.82241 26 ft 12 kts 268°
2026-04-22 15:36 53.52920 9.82132 29 ft 5 kts 223°
2026-04-22 15:37 53.52875 9.82170 26 ft 8 kts 111°
2026-04-22 15:37 53.52880 9.82203 31 ft 11 kts 70°
2026-04-22 15:37 53.52941 9.82314 27 ft 15 kts 45°
2026-04-22 15:37 53.53031 9.82494 28 ft 27 kts 51°
2026-04-22 15:38 53.53161 9.82767 28 ft 32 kts 52°
2026-04-22 15:38 53.53319 9.83099 28 ft 0 kts 38°
2026-04-22 15:38 53.53320 9.83100 28 ft 2 kts 33°
2026-04-22 15:39 53.53355 9.83075 28 ft 8 kts 320°
2026-04-22 15:39 53.53412 9.82995 28 ft 13 kts 320°
2026-04-22 15:39 53.53496 9.82878 28 ft 18 kts 322°
2026-04-22 15:39 53.53604 9.82734 28 ft 22 kts 320°
2026-04-22 15:40 53.53691 9.82522 28 ft 23 kts 283°
2026-04-22 15:40 53.53734 9.82246 28 ft 26 kts 284°
2026-04-22 15:40 53.53783 9.81933 27 ft 29 kts 285°
2026-04-22 15:40 53.53858 9.81775 27 ft 16 kts
2026-04-22 15:41 53.53969 9.81832 27 ft 16 kts 33°
2026-04-22 15:41 53.53971 9.82018 28 ft 19 kts 105°
2026-04-22 15:41 53.53932 9.82261 28 ft 23 kts 105°
2026-04-22 15:41 53.53915 9.82363 28 ft 1 kts 106°
2026-04-22 15:42 53.53914 9.82419 28 ft 7 kts 71°
2026-04-22 15:42 53.53956 9.82467 28 ft 9 kts 16°
2026-04-22 15:42 53.53971 9.82473 28 ft 1 kts 14°